Hourly Weather Ruche

Today, 10 April, Saturday

Time Temperature Precipitation Wind Pressure Humidity
00:00 +2°C° 0 mm 5 mps 746 mmHg 65%
01:00 +2°C° 0 mm 5 mps 746 mmHg 67%
02:00 +2°C° 0 mm 5 mps 746 mmHg 68%
03:00 +1°C° 0 mm 5 mps 746 mmHg 70%
04:00 +1°C° 0 mm 5 mps 746 mmHg 72%
05:00 +1°C° 0 mm 5 mps 746 mmHg 75%
06:00 +1°C° 0 mm 5 mps 746 mmHg 73%
07:00 +2°C° 0 mm 5 mps 746 mmHg 71%
08:00 +3°C° 0 mm 6 mps 746 mmHg 69%
09:00 +4°C° 0 mm 6 mps 746 mmHg 64%
10:00 +7°C° 0 mm 6 mps 746 mmHg 58%
11:00 +8°C° 0 mm 7 mps 746 mmHg 53%
12:00 +9°C° 0 mm 7 mps 746 mmHg 51%
13:00 +10°C° 0 mm 7 mps 746 mmHg 49%
14:00 +11°C° 0 mm 7 mps 746 mmHg 48%
15:00 +11°C° 0.1 mm 6 mps 746 mmHg 51%
16:00 +10°C° 0.1 mm 6 mps 746 mmHg 55%
17:00 +10°C° 0.1 mm 5 mps 746 mmHg 59%
18:00 +10°C° 0.1 mm 4 mps 747 mmHg 67%
19:00 +9°C° 0.1 mm 3 mps 747 mmHg 74%
20:00 +7°C° 0.1 mm 2 mps 748 mmHg 82%
21:00 +7°C° 0.4 mm 2 mps 748 mmHg 86%
22:00 +8°C° 0.4 mm 1 mps 748 mmHg 89%
23:00 +7°C° 0.4 mm 1 mps 748 mmHg 92%

Tomorrow, 11 April, Sunday

Time Temperature Precipitation Wind Pressure Humidity
00:00 +7°C° 0.5 mm 1 mps 748 mmHg 93%
01:00 +7°C° 0.5 mm 1 mps 749 mmHg 94%
02:00 +6°C° 0.5 mm 2 mps 749 mmHg 95%
03:00 +6°C° 0.3 mm 2 mps 749 mmHg 94%
04:00 +6°C° 0.3 mm 2 mps 749 mmHg 94%
05:00 +6°C° 0.3 mm 2 mps 749 mmHg 94%
06:00 +6°C° 0 mm 2 mps 750 mmHg 91%
07:00 +7°C° 0 mm 2 mps 750 mmHg 89%
08:00 +7°C° 0 mm 2 mps 750 mmHg 87%
09:00 +8°C° 0 mm 3 mps 751 mmHg 80%
10:00 +10°C° 0 mm 3 mps 751 mmHg 74%
11:00 +11°C° 0 mm 4 mps 751 mmHg 67%
12:00 +12°C° 0 mm 4 mps 751 mmHg 63%
13:00 +13°C° 0 mm 4 mps 751 mmHg 59%
14:00 +14°C° 0 mm 4 mps 751 mmHg 55%
15:00 +14°C° 0 mm 4 mps 751 mmHg 55%
16:00 +14°C° 0 mm 4 mps 751 mmHg 56%
17:00 +14°C° 0 mm 4 mps 751 mmHg 56%
18:00 +13°C° 0 mm 4 mps 752 mmHg 61%
19:00 +11°C° 0 mm 3 mps 752 mmHg 67%
20:00 +10°C° 0 mm 3 mps 752 mmHg 72%
21:00 +9°C° 0 mm 3 mps 752 mmHg 72%
22:00 +9°C° 0 mm 3 mps 752 mmHg 71%
23:00 +8°C° 0 mm 3 mps 753 mmHg 71%

Day after tomorrow, 12 April, Monday

Time Temperature Precipitation Wind Pressure Humidity
00:00 +8°C° 0 mm 3 mps 753 mmHg 72%
01:00 +7°C° 0 mm 3 mps 753 mmHg 73%
02:00 +5°C° 0 mm 3 mps 753 mmHg 75%
03:00 +5°C° 0 mm 3 mps 752 mmHg 75%
04:00 +4°C° 0 mm 3 mps 752 mmHg 75%
05:00 +4°C° 0 mm 3 mps 752 mmHg 75%
06:00 +5°C° 0 mm 4 mps 752 mmHg 71%
07:00 +6°C° 0 mm 4 mps 752 mmHg 66%
08:00 +7°C° 0 mm 4 mps 752 mmHg 62%
09:00 +9°C° 0 mm 5 mps 752 mmHg 56%
10:00 +10°C° 0 mm 5 mps 751 mmHg 49%
11:00 +13°C° 0 mm 6 mps 751 mmHg 43%
12:00 +14°C° 0 mm 6 mps 751 mmHg 41%
13:00 +14°C° 0 mm 5 mps 750 mmHg 39%
14:00 +15°C° 0 mm 5 mps 750 mmHg 37%
15:00 +15°C° 0 mm 5 mps 749 mmHg 39%
16:00 +15°C° 0 mm 4 mps 749 mmHg 41%
17:00 +14°C° 0 mm 3 mps 748 mmHg 43%
18:00 +13°C° 0 mm 3 mps 748 mmHg 49%
19:00 +11°C° 0 mm 3 mps 748 mmHg 55%
20:00 +10°C° 0 mm 2 mps 748 mmHg 60%
21:00 +9°C° 0 mm 2 mps 748 mmHg 63%
22:00 +8°C° 0 mm 2 mps 748 mmHg 66%
23:00 +7°C° 0 mm 2 mps 748 mmHg 68%

13 April, Tuesday

Time Temperature Precipitation Wind Pressure Humidity
00:00 +7°C° 0 mm 2 mps 748 mmHg 70%
01:00 +6°C° 0 mm 2 mps 748 mmHg 71%
02:00 +6°C° 0 mm 2 mps 748 mmHg 73%
03:00 +6°C° 0 mm 2 mps 748 mmHg 73%
04:00 +6°C° 0 mm 2 mps 747 mmHg 73%
05:00 +6°C° 0 mm 2 mps 747 mmHg 73%
06:00 +7°C° 0 mm 2 mps 747 mmHg 71%
07:00 +8°C° 0 mm 2 mps 747 mmHg 70%
08:00 +8°C° 0 mm 2 mps 747 mmHg 68%
09:00 +10°C° 0 mm 2 mps 747 mmHg 65%
10:00 +12°C° 0 mm 2 mps 747 mmHg 62%
11:00 +13°C° 0 mm 2 mps 747 mmHg 58%
12:00 +13°C° 0 mm 2 mps 747 mmHg 56%
13:00 +14°C° 0 mm 2 mps 747 mmHg 55%
14:00 +15°C° 0 mm 2 mps 747 mmHg 53%
15:00 +14°C° 0 mm 2 mps 747 mmHg 56%
16:00 +14°C° 0 mm 2 mps 747 mmHg 60%
17:00 +13°C° 0 mm 2 mps 746 mmHg 64%
18:00 +11°C° 0 mm 3 mps 747 mmHg 72%
19:00 +9°C° 0 mm 3 mps 747 mmHg 79%
20:00 +7°C° 0 mm 4 mps 747 mmHg 87%
21:00 +6°C° 0 mm 4 mps 747 mmHg 87%
22:00 +5°C° 0 mm 4 mps 748 mmHg 88%
23:00 +5°C° 0 mm 4 mps 748 mmHg 88%

14 April, Wednesday

Time Temperature Precipitation Wind Pressure Humidity
00:00 +4°C° 0 mm 4 mps 747 mmHg 88%
01:00 +4°C° 0 mm 4 mps 747 mmHg 87%
02:00 +4°C° 0 mm 4 mps 747 mmHg 86%
03:00 +3°C° 0.1 mm 4 mps 747 mmHg 87%
04:00 +3°C° 0.1 mm 4 mps 747 mmHg 87%
05:00 +2°C° 0.1 mm 5 mps 747 mmHg 87%
06:00 +2°C° 0.2 mm 5 mps 747 mmHg 88%
07:00 +2°C° 0.2 mm 5 mps 747 mmHg 88%
08:00 +2°C° 0.2 mm 5 mps 747 mmHg 89%
09:00 +3°C° 0.1 mm 5 mps 748 mmHg 88%
10:00 +3°C° 0.1 mm 5 mps 748 mmHg 87%
11:00 +5°C° 0.1 mm 5 mps 748 mmHg 86%
12:00 +5°C° 0 mm 5 mps 748 mmHg 86%
13:00 +4°C° 0 mm 6 mps 748 mmHg 86%
14:00 +4°C° 0 mm 6 mps 747 mmHg 86%
15:00 +4°C° 0 mm 6 mps 747 mmHg 86%
16:00 +4°C° 0 mm 6 mps 747 mmHg 86%
17:00 +4°C° 0 mm 6 mps 747 mmHg 86%
18:00 +3°C° 0.2 mm 6 mps 747 mmHg 86%
19:00 +3°C° 0.2 mm 6 mps 748 mmHg 86%
20:00 +2°C° 0.2 mm 6 mps 748 mmHg 86%
21:00 +2°C° 0.3 mm 6 mps 748 mmHg 87%
22:00 +2°C° 0.3 mm 5 mps 748 mmHg 88%
23:00 +2°C° 0.3 mm 5 mps 748 mmHg 89%

15 April, Thursday

Time Temperature Precipitation Wind Pressure Humidity
00:00 +2°C° 0.2 mm 5 mps 748 mmHg 89%
01:00 +2°C° 0.2 mm 5 mps 748 mmHg 90%
02:00 +1°C° 0.2 mm 5 mps 748 mmHg 90%
03:00 +1°C° 0.1 mm 5 mps 748 mmHg 90%
04:00 +1°C° 0.1 mm 5 mps 748 mmHg 91%
05:00 +1°C° 0.1 mm 5 mps 748 mmHg 91%
06:00 +2°C° 0 mm 5 mps 749 mmHg 90%
07:00 +2°C° 0 mm 5 mps 749 mmHg 90%
08:00 +2°C° 0 mm 5 mps 749 mmHg 89%
09:00 +2°C° 0 mm 5 mps 750 mmHg 89%
10:00 +2°C° 0 mm 5 mps 750 mmHg 88%
11:00 +2°C° 0 mm 5 mps 750 mmHg 88%
12:00 +3°C° 0 mm 5 mps 750 mmHg 84%
13:00 +3°C° 0 mm 5 mps 750 mmHg 81%
14:00 +5°C° 0 mm 5 mps 750 mmHg 77%
15:00 +5°C° 0 mm 5 mps 750 mmHg 72%
16:00 +6°C° 0 mm 5 mps 750 mmHg 67%
17:00 +7°C° 0 mm 5 mps 750 mmHg 62%
18:00 +6°C° 0 mm 5 mps 750 mmHg 61%
19:00 +5°C° 0 mm 5 mps 751 mmHg 61%
20:00 +4°C° 0 mm 4 mps 751 mmHg 61%
21:00 +3°C° 0 mm 4 mps 751 mmHg 63%
22:00 +1°C° 0 mm 4 mps 751 mmHg 65%
23:00 +1°C° 0 mm 4 mps 752 mmHg 67%
Show more